Tracking 20475 objects as of 27-Feb-2020
HD Live streaming from Space Station
objects crossing your sky now

OPS 7518 (NTS 1)

Track OPS 7518 (NTS 1) now!
10-day predictions
OPS 7518 (NTS 1) is classified as:


NORAD ID: 7369
Int'l Code: 1974-054A
Perigee: 13,472.1 km
Apogee: 13,762.3 km
Inclination: 125.2 °
Period: 468.7 minutes
Semi major axis: 19988 km
RCS: 0.8 m2 (medium)
Launch date: July 14, 1974
Source: United States (US)
Launch site: AIR FORCE WESTERN TEST RANGE (AFWTR)
aabbcc
Your satellite tracking list
Your tracking list is empty




NASA's NSSDC Master Catalog

Two Line Element Set (TLE):
1  7369U 74054A   20056.43494021 +.00000024 +00000-0 +00000-0 0  9991
2  7369 125.1693 358.2437 0072598 297.8146 062.6950 03.07214965511848
Source of the keplerian elements: AFSPC